EHI
0 0 0 0 0 0 0 0 0 0 0 0 0 0 0 0 0 0 0 0 0 0 0 0 0 0 0 0 0 0 0 0 0 0 0 0 0 0 0 0 0 0 0
0 0 0 0 0 0 0 0 0 0 0 0 0 0 0 0 0 0 0 0 0 0 0 0 0 0 0 0 0 0 0 0 0 0 0 0 0 0 0 0 0 0 0
0 0 0 0 0 0 0 0 0 0 0 0 0 0 0 0 0 0 0 0 0 0 0 0 0 0 0 0 0 0 0 0 0 0 0 0 0 0 0 0 0 0 0
0 0 0 0 0 0 0 0 0 0 0 0 0 0 0 0 0 0 0 0 0 0 0 0 0 0 0 0 0 0 0 0 0 0 0 0 0 0 0 0 0 0 0
0 0 0 0 0 0 0 0 0 0 0 0 0 0 0 0 0 0 0 0 0 0 0 0 0 0 0 0 0 0 0 0 0 0 0 0 0 0 0 0 0 0 0
0 0 0 0 0 0 0 0 0 0 0 0 0 0 0 0 0 0 0 0 0 0 0 0 0 0 0 0 0 0 0 0 0 0 0 0 0 0 0 0 0 0 0
0 0 0 0 0 0 0 0 0 0 0 0 0 0 0 0 0 0 0 0 0 0 0 0 0 0 0 0 0 0 0 0 0 0 0 0 0 0 0 0 0 0 0
0 0 0 0 0 0 0 0 0 0 0 0 0 0 0 0 0 0 0 0 0 0 0 0 0 0 0 0 0 0 0 0 0 0 0 0 0 0 0 0 0 0 0
0 0 0 0 0 0 0 0 0 0 0 0 0 0 0 0 0 0 0 0 0 0 0 0 0 0 0 0 0 0 0 0 0 0 0 0 0 0 0 0 0 0 0
0 0 0 0 0 0 0 0 0 0 0 0 0 0 0 0 0 0 0 0 0 0 0 0 0 0 0 0 0 0 0 0 0 0 0 0 0 0 0 0 0 0 0
0 0 0 0 0 0 0 0 0 0 0 0 0 0 0 0 0 0 0 0 0 0 0 0 0 0 0 0 0 0 0 0 0 0 0 0 0 0 0 0 0 0 0
0 0 0 0 0 0 0 0 0 0 0 0 0 0 0 0 0 0 0 0 0 0 0 0 0 0 0 0 0 0 0 0 0 0 0 0 0 0 0 0 0 0 0
0 0 0 0 0 0 0 0 0 0 0 0 0 0 0 0 0 0 0 0 0 0 0 0 0 0 0 0 0 0 0 0 0 0 0 0 0 0 0 0 0 0 0
0 0 0 0 0 0 0 0 0 0 0 0 0 0 0 0 0 0 0 0 0 0 0 0 0 0 0 0 0 0 0 0 0 0 0 0 0 0 0 0 0 0 0
0 0 0 0 0 0 0 0 0 0 0 0 0 0 0 0 0 0 0 0 0 0 0 0 0 0 0 0 0 0 0 0 0 0 0 0 0 0 0 0 0 0 0
0 0 0 0 0 0 0 0 0 0 0 0 0 0 0 0 0 0 0 0 0 0 0 0 0 0 0 0 0 0 0 0 0 0 0 0 0 0 0 0 0 0 0
0 0 0 0 0 0 0 0 0 0 0 0 0 0 0 0 0 0 0 0 0 0 0 0 0 0 0 0 0 0 0 0 0 0 0 0 0 0 0 0 0 0 0
0 0 0 0 0 0 0 0 0 0 0 0 0 0 0 0 0 0 0 0 0 0 0 0 0 0 0 0 0 0 0 0 0 0 0 0 0 0 0 0 0 0 0
0 0 0 0 0 0 0 0 0 0 0 0 0 0 0 0 0 0 0 0 0 0 0 0 0 0 0 0 0 0 0 0 0 0 0 0 0 0 0 0 0 0 0
0 0 0 0 0 0 0 0 0 0 0 0 0 0 0 0 0 0 0 0 0 0 0 0 0 0 0 0 0 0 0 0 0 0 0 0 0 0 0 0 0 0 0
0 0 0 0 0 0 0 0 0 0 0 0 0 0 0 0 0 0 0 0 0 0 0 0 0 0 0 0 0 0 0 0 0 0 0 0 0 0 0 0 0 0 0
0 0 0 0 0 0 0 0 0 0 0 0 0 0 0 0 0 0 0 0 0 0 0 0 0 0 0 0 0 0 0 0 0 0 0 0 0 0 0 0 0 0 0
0 0 0 0 0 0 0 0 0 0 0 0 0 0 0 0 0 0 0 0 0 0 0 0 0 0 0 0 0 0 0 0 0 0 0 0 0 0 0 0 0 0 0
0 0 0 0 0 0 0 0 0 0 0 0 0 0 0 0 0 0 0 0 0 0 0 0 0 0 0 0 0 0 0 0 0 0 0 0 0 0 0 0 0 0 0
0 0 0 0 0 0 0 0 0 0 0 0 0 0 0 0 0 0 0 0 0 0 0 0 0 0 0 0 0 0 0 0 0 0 0 0 0 0 0 0 0 0 0
0 0 0 0 0 0 0 0 0 0 0 0 0 0 0 0 0 0 0 0 0 0 0 0 0 0 0 0 0 0 0 0 0 0 0 0 0 0 0 0 0 0 0
Wind_Speed
6 6 6 6 6 5 5 6 6 5 5 5 5 5 6 6 6 5 5 6 6 6 6 6 7 5 4 4 3 3 4 5 5 3 1 1 3 5 5 5 6 6 7
8 7 8 7 7 6 7 8 7 6 6 6 6 6 6 6 6 6 7 7 6 6 6 6 7 5 5 4 3 4 4 4 4 4 2 2 3 6 7 7 6 6 7
8 8 8 8 8 9 9 9 8 7 7 7 6 6 7 7 6 6 6 7 7 7 6 7 7 6 6 4 4 4 3 3 3 4 3 2 3 6 8 7 8 6 7
8 9 9 10 10 10 10 9 9 8 8 8 8 7 7 7 7 7 6 6 7 6 6 7 8 7 7 5 4 4 3 3 3 4 4 5 5 6 7 7 7 5 6
8 9 10 11 10 9 9 10 10 9 10 9 8 7 7 6 7 6 5 6 6 6 6 7 7 8 9 6 4 4 4 4 4 4 5 6 6 7 7 5 8 7 6
8 9 10 9 9 9 10 10 9 9 9 8 8 7 7 7 8 10 7 5 6 7 6 6 7 7 8 8 7 6 6 6 6 5 5 7 8 8 7 8 9 8 5
9 9 9 8 8 9 9 8 8 8 8 8 8 7 8 8 11 11 11 6 6 7 7 7 7 6 7 5 5 5 4 5 6 6 8 8 9 10 10 9 7 5 6
9 8 8 7 8 7 7 7 8 7 7 7 7 8 7 9 11 12 11 6 5 6 7 8 8 8 7 7 6 4 3 3 4 5 7 8 10 9 8 9 9 9 7
8 8 8 7 7 7 7 7 7 6 7 7 6 8 8 8 11 12 10 4 4 6 7 7 9 9 11 12 8 7 5 4 6 10 10 11 13 13 11 9 10 10 8
9 9 8 7 8 8 8 8 7 6 7 7 7 7 8 8 11 12 10 4 4 4 4 6 10 11 14 14 9 9 8 6 8 10 11 11 10 11 11 9 10 10 8
10 10 10 9 9 9 8 8 7 7 7 7 7 7 7 8 10 12 10 5 5 4 3 3 5 12 14 14 10 8 11 10 8 9 8 7 7 6 6 6 6 9 7
11 11 11 10 10 10 7 7 7 7 7 6 6 6 5 6 8 9 10 10 7 5 4 3 4 11 13 14 9 11 14 11 7 7 7 6 6 5 5 6 6 5 4
12 12 11 11 10 9 8 8 6 6 6 5 5 5 5 4 5 8 9 9 10 5 2 4 6 11 11 10 12 16 12 7 8 8 7 5 4 5 6 7 7 7 6
13 12 11 10 9 8 7 6 6 6 6 5 5 5 4 4 4 3 3 4 6 4 3 5 8 10 8 9 11 9 6 6 8 7 6 5 4 5 6 6 6 6 6
12 11 10 9 8 7 6 6 7 6 6 7 6 5 5 5 6 8 6 4 4 4 5 4 4 5 6 6 6 6 6 7 7 6 7 6 5 5 4 4 4 5 5
10 9 7 6 5 5 5 5 7 8 10 12 9 7 5 6 8 10 9 8 9 10 7 5 5 6 7 7 8 6 5 6 7 7 7 6 6 6 4 3 4 6 6
10 8 6 5 5 4 4 4 3 2 2 4 7 8 7 9 10 10 10 9 9 10 5 5 6 6 6 6 6 6 5 6 6 7 7 6 6 5 5 5 5 5 5
8 8 6 4 3 3 3 2 2 2 2 2 2 5 8 9 10 10 10 8 5 4 4 5 6 6 6 6 6 5 6 6 6 6 6 6 6 5 5 5 5 5 4
7 5 4 3 3 2 2 2 2 3 3 4 4 4 6 7 7 7 7 4 5 5 5 5 5 5 6 6 6 6 7 7 7 6 6 6 6 5 5 5 5 7 5
6 10 7 3 2 1 0 1 2 3 4 4 5 5 5 4 4 4 3 3 4 4 4 4 4 4 5 6 6 6 6 6 7 5 5 6 6 6 7 7 7 6 5
5 6 8 4 2 2 1 2 2 3 4 4 4 5 7 5 4 4 3 3 4 3 3 3 3 5 5 5 6 7 8 6 6 6 6 6 6 5 5 6 6 6 5
5 4 3 2 2 1 1 1 2 3 4 5 4 5 7 4 4 3 3 3 2 2 3 3 4 5 6 6 7 7 7 7 6 6 6 6 5 5 5 5 5 5 6
5 4 2 2 2 2 3 2 3 4 4 5 5 5 4 3 3 3 3 3 2 2 3 4 4 5 5 6 7 8 8 8 7 8 7 6 5 5 5 6 7 6 6
5 4 2 2 1 2 2 2 3 4 4 5 5 5 4 3 4 4 3 2 2 2 3 4 5 8 9 7 6 6 7 7 8 8 10 8 6 5 5 5 6 7 6
4 3 2 1 1 2 2 3 3 4 4 4 4 4 4 3 3 3 2 2 1 2 2 4 5 8 11 11 9 7 10 12 9 8 7 7 7 7 6 6 5 5 5
4 3 3 2 2 2 2 3 3 3 4 4 4 4 4 3 3 2 2 1 1 1 2 3 6 8 10 9 11 12 11 11 11 10 7 6 7 6 6 5 6 6 6
Wind_Direction
227 230 235 243 247 252 257 263 268 275 284 289 292 299 301 298 293 285 271 262 249 247 240 231 233 232 232 234 234 234 230 223 243 242 206 159 133 125 109 93 85 81 85
231 230 235 239 240 243 248 253 254 259 265 267 274 280 284 289 291 286 281 272 253 248 244 236 236 233 232 232 233 236 232 218 219 223 196 158 136 134 120 106 94 90 88
237 234 240 243 241 242 245 248 248 249 255 259 260 263 268 271 275 274 272 270 255 244 239 235 232 224 229 229 230 233 230 225 207 190 181 153 131 133 120 106 101 94 90
240 235 238 240 239 240 244 246 246 245 246 251 250 249 254 259 265 268 271 273 261 247 242 236 224 216 218 221 226 224 216 208 191 178 167 149 134 129 125 123 112 95 92
243 239 238 239 238 238 240 242 243 242 243 241 243 247 248 252 255 257 261 272 264 252 247 235 221 213 210 209 208 206 201 200 183 173 160 145 141 143 135 128 120 109 87
245 243 241 237 234 234 236 236 236 238 241 239 236 237 241 250 261 267 265 267 263 248 243 233 220 210 205 204 202 198 197 192 180 172 161 153 146 141 133 135 133 131 115
251 248 245 241 238 237 238 236 232 232 233 235 236 234 235 243 253 261 266 261 258 246 238 223 213 203 189 182 178 175 183 177 173 168 159 152 148 149 143 140 139 124 120
261 256 251 245 242 240 238 237 234 229 227 228 232 232 233 242 247 254 261 257 256 250 238 223 208 192 186 173 161 150 138 135 146 147 145 141 140 142 141 138 130 111 99
283 274 266 257 249 240 235 235 233 228 230 228 227 228 229 240 245 251 254 245 249 259 249 227 206 192 184 168 156 147 132 114 104 115 119 123 129 134 136 130 130 131 127
282 277 272 265 258 250 240 233 229 225 232 233 234 228 225 230 237 241 240 223 241 257 254 227 207 192 174 166 160 153 145 137 126 115 109 111 119 129 137 140 143 141 136
286 282 277 268 262 259 250 240 233 229 229 231 235 234 227 227 234 237 229 207 219 237 243 221 204 184 172 168 162 157 150 140 128 122 117 114 111 115 122 129 138 144 143
289 286 281 273 269 272 257 247 235 227 229 231 232 238 233 229 228 232 224 214 209 215 223 200 183 172 172 166 157 145 140 131 125 122 120 120 120 120 122 126 128 126 134
287 283 279 276 268 261 254 250 244 230 225 225 220 226 233 229 227 224 213 209 207 202 199 175 166 167 165 161 148 142 138 128 127 125 125 122 115 118 113 105 99 99 85
287 284 278 273 267 259 250 243 240 229 219 217 213 217 220 214 206 196 187 185 186 182 162 142 151 160 158 144 142 138 131 131 132 130 126 115 103 103 112 118 121 113 94
289 285 279 270 263 258 250 240 233 227 215 206 206 198 194 205 208 187 174 179 175 161 144 134 144 151 145 138 132 126 124 125 122 124 125 120 115 111 107 97 104 101 105
296 291 283 273 264 255 253 259 242 235 233 223 213 195 196 191 172 169 167 162 158 152 145 144 152 155 152 148 144 134 129 135 138 137 136 134 133 129 117 100 104 113 117
299 296 290 280 267 257 246 239 249 263 222 212 202 190 173 156 157 159 155 152 151 147 144 149 155 158 150 146 142 138 138 143 142 142 143 142 137 131 125 123 120 118 121
307 305 303 287 273 259 242 223 200 176 138 90 95 145 151 152 154 155 151 141 139 150 149 153 157 154 147 145 144 140 137 138 139 141 144 143 141 137 137 141 142 140 136
315 309 301 298 292 269 230 199 178 163 140 126 109 97 118 131 136 152 157 152 150 153 150 149 156 152 149 146 145 142 143 146 148 145 147 148 148 143 146 151 152 154 141
318 329 337 318 319 327 251 148 137 134 131 133 136 137 140 134 141 153 165 154 146 146 146 152 150 152 151 146 143 143 143 145 147 145 149 151 150 148 151 152 153 155 157
319 328 343 344 344 356 43 103 122 128 132 137 144 156 158 150 151 157 159 150 142 148 153 154 155 157 153 146 144 147 148 150 152 149 148 149 147 146 149 150 155 155 152
318 322 334 342 359 28 48 84 110 117 123 124 123 133 151 142 149 154 151 147 159 173 172 165 169 166 162 156 151 149 150 151 153 148 146 147 147 146 143 142 145 150 152
319 327 344 353 19 48 54 68 92 107 116 123 130 137 152 151 152 154 160 166 181 193 182 174 168 158 155 156 156 156 158 162 161 153 147 146 147 148 146 148 153 153 163
321 326 340 359 29 52 72 84 95 107 118 125 132 140 148 149 154 167 171 175 186 187 165 158 158 155 152 151 150 151 153 154 151 152 150 150 151 151 150 152 160 168 173
327 340 354 11 38 62 81 95 101 107 114 122 128 133 139 145 152 165 171 179 173 147 141 138 143 150 150 151 153 151 152 152 152 149 146 147 153 156 157 159 161 162 168
347 2 18 33 51 72 87 96 102 106 111 119 122 127 135 140 149 158 157 138 108 111 128 130 140 146 149 152 153 150 154 158 158 154 148 146 151 159 160 164 171 173 177